Weather History for Sandberg, CA

Change the Weather History Date:

Sunday, January 13, 2013

  Actual Average Record
Temperature  
Mean Temperature 31 °F 43 °F  
Max Temperature 39 °F 49 °F 68 °F (1996)
Min Temperature 23 °F 37 °F 12 °F (1963)
Degree Days  
Heating Degree Days 34 22  
Month to date heating degree days 325 289  
Since 1 July heating degree days 1499 1770  
Cooling Degree Days 0 0  
Month to date cooling degree days 0 0  
Year to date cooling degree days 0 0  
Moisture  
Dew Point 12 °F    
Average Humidity 59    
Maximum Humidity 85    
Minimum Humidity 32    
Precipitation  
Precipitation 0.00 in 0.08 in 1.14 in (1993)
Month to date precipitation 0.21 1.28  
Year to date precipitation 0.21 1.28  
Since 1 July precipitation 1.58 5.13  
Sea Level Pressure  
Sea Level Pressure 30.05 in    
Wind  
Wind Speed 11 mph (NE)    
Max Wind Speed 28 mph    
Max Gust Speed 32 mph    
Visibility 10 miles    
Events      
T = Trace of Precipitation, MM = Missing Value Source: NWS Daily Summary

Daily Weather History Graph

Daily Weather History Graph

Search for Another Location

Airport:

Trip Planner

Search our weather history database for the weather conditions in past years. The results will help you decide how hot, cold, wet, or windy it might be!

Date:

Astronomy

Jan. 13, 2013 Rise Set
Actual Time 7:02 AM PST 5:05 PM PST
Civil Twilight 6:34 AM PST 5:33 PM PST
Nautical Twilight 6:03 AM PST 6:04 PM PST
Astronomical Twilight 5:33 AM PST 6:34 PM PST
Moon 8:10 AM PST (1/13) 7:41 PM PST (1/13)
Length of Visible Light 10h 58m
Length of Day
10h 03m
Waxing Crescent, 6% of the Moon is Illuminated
Jan 13
Waxing Crescent
Jan 18
First Quarter
Jan 26
Full
Feb 3
Last Quarter
Feb 9
New

Hourly Weather History & Observations

Time (PST) Temp. Windchill Dew Point Humidity Pressure Visibility Wind Dir Wind Speed Gust Speed Precip Events Conditions
12:48 AM 28.0 °F 20.8 °F 12.0 °F 51% 30.03 in 10.0 mi NE 6.9 mph - N/A   Overcast
1:48 AM 28.0 °F 17.0 °F 10.9 °F 49% 30.04 in 10.0 mi East 13.8 mph - N/A   Partly Cloudy
2:48 AM 27.0 °F 15.2 °F 12.0 °F 53% 30.05 in 10.0 mi ENE 15.0 mph - N/A   Clear
3:48 AM 26.1 °F 14.0 °F 12.0 °F 55% 30.05 in 10.0 mi East 15.0 mph - N/A   Clear
4:48 AM 25.0 °F 14.8 °F 10.9 °F 55% 30.08 in 10.0 mi ENE 10.4 mph - N/A   Clear
5:48 AM 25.0 °F 14.8 °F 7.0 °F 46% 30.08 in 10.0 mi ENE 10.4 mph - N/A   Clear
6:48 AM 24.1 °F 14.4 °F 3.9 °F 42% 30.11 in 10.0 mi ENE 9.2 mph - N/A   Clear
7:48 AM - - - N/A% - - North - - N/A   Unknown
8:48 AM 30.9 °F 26.2 °F 6.1 °F 35% 30.10 in 10.0 mi ENE 4.6 mph - N/A   Clear
9:48 AM 33.1 °F 27.7 °F 8.1 °F 35% 30.10 in 10.0 mi NE 5.8 mph - N/A   Clear
10:48 AM 35.1 °F - 9.0 °F 34% 30.08 in 10.0 mi Calm Calm - N/A   Clear
11:48 AM 36.0 °F 33.3 °F 10.0 °F 34% 30.03 in 10.0 mi North 3.5 mph - N/A   Clear
12:48 PM 37.0 °F 31.6 °F 12.0 °F 36% 30.00 in 10.0 mi North 6.9 mph - N/A   Clear
1:48 PM 36.0 °F 28.5 °F 18.0 °F 48% 30.01 in 10.0 mi North 10.4 mph - N/A   Clear
3:48 PM 30.0 °F 18.3 °F 15.1 °F 54% 30.02 in 10.0 mi North 17.3 mph 24.2 mph N/A   Clear
4:48 PM 28.0 °F 13.9 °F 16.0 °F 61% 30.01 in 10.0 mi NNW 23.0 mph - N/A   Clear
5:48 PM 27.0 °F 18.0 °F 17.1 °F 66% 30.05 in 10.0 mi NE 9.2 mph 17.3 mph N/A   Mostly Cloudy
6:09 PM 26.6 °F 18.2 °F 17.6 °F 69% 30.01 in 10.0 mi NE 8.1 mph - N/A   Overcast
6:32 PM 24.8 °F 17.9 °F 17.6 °F 74% 30.02 in 10.0 mi Variable 5.8 mph - N/A   Mostly Cloudy
6:40 PM 24.8 °F 13.4 °F 17.6 °F 74% 30.02 in 10.0 mi NNW 12.7 mph - N/A   Scattered Clouds
6:48 PM 25.0 °F 13.6 °F 17.1 °F 72% 30.07 in 10.0 mi NNW 12.7 mph - N/A   Partly Cloudy
7:48 PM 24.1 °F 12.5 °F 18.0 °F 77% 30.06 in 10.0 mi NNW 12.7 mph - N/A   Clear
8:48 PM 25.0 °F 13.6 °F 12.0 °F 58% 30.06 in 10.0 mi NE 12.7 mph - N/A   Clear
9:48 PM 24.1 °F 11.0 °F 5.0 °F 44% 30.07 in 10.0 mi ENE 16.1 mph 21.9 mph N/A   Clear
10:48 PM 24.1 °F 8.7 °F 1.0 °F 37% 30.07 in 10.0 mi East 23.0 mph 27.6 mph N/A   Clear
11:48 PM 23.0 °F 6.9 °F -0.0 °F 37% 30.09 in 10.0 mi East 24.2 mph 34.5 mph N/A   Clear